www.pogodaiklimat.ru

Погода и климат >> Архив погоды >> Индонезия >> Денпасар


ПОГОДА в Денпасаре

  • Прогноз погоды в Денпасаре
  • Монитор погоды в Денпасаре

АРХИВ ПОГОДЫ в Денпасаре

Время (UTC), дата Ветер
(напр.,м/с)
 
Видим.   Явления Облачность Т
(С)
Тd
(С)
f
(%)
Тe
(С)
Тes
(С)
Комфортность P
(гПа)
Po
(гПа)
Тmin
(С)
Tmax
(С)
R
(мм)
R24
(мм)
S
(см)
03 9.06 В 4 10 км 8/3 480 м
[Cu med, cong Ac trans Ci sp]
+28.8 +22.7 70 +38 +43 очень
душно
1013.2 1012.7
06 9.06 В 5 10 км 5/3 500 м
[Cu med, cong Ci fib]
+28.6 +23.2 73 +39 +44 очень
душно
1011.3 1010.8
09 9.06 ЮВ 4 10 км 5/3 500 м
[Cu med, cong Ci fib]
+27.7 +23.4 77 +37 +38 очень
душно
1011.2 1010.7
12 9.06 В 3 10 км 6/5 500 м
[Cu med, cong Ci fib]
+26.7 +23.4 82 +36 +36 очень
душно
1012.6 1012.1 +29.4
15 9.06 В 4 10 км 4/3 500 м
[Cu med, cong Ci fib]
+26.3 +23.6 85 +36 +36 очень
душно
1012.5 1012.0
18 9.06 В 3 10 км 4/3 500 м
[Cu med, cong Ci fib]
+25.9 +23.0 84 +35 +35 очень
душно
1011.4 1010.9
21 9.06 В 3 10 км 4/3 500 м
[Cu med, cong Ci fib]
+25.6 +22.5 83 +34 +34 очень
душно
1010.8 1010.3
00 10.06 В 3 10 км 4/3 500 м
[Cu med, cong Ci fib]
+26.6 +22.7 79 +35 +36 очень
душно
1011.7 1011.2 +25.0
03 10.06 В 4 10 км 4/3 500 м
[Cu med, cong Ci fib]
+28.4 +22.8 72 +38 +44 очень
душно
1011.1 1010.6
06 10.06 В 5 10 км 4/3 500 м
[Cu med, cong Ci fib]
+28.7 +22.8 70 +38 +43 очень
душно
1009.2 1008.7
09 10.06 ЮВ 4 10 км 5/4 500 м
[Cu med, cong Ci fib]
+27.7 +22.8 75 +37 +37 очень
душно
1009.3 1008.8
12 10.06 ЮВ 3 10 км 6/3 500 м
[Cu med, cong Ci fib]
+26.5 +23.0 81 +35 +35 очень
душно
1011.8 1011.3 +29.2
15 10.06 ЮВ 2 10 км 5/3 500 м
[Cu med, cong Ci fib]
+26.0 +23.1 84 +35 +35 очень
душно
1013.2 1012.7
18 10.06 ЮВ 1 10 км 5/3 500 м
[Cu med, cong Ci fib]
+25.4 +23.1 87 +34 +34 очень
душно
1012.6 1012.1
21 10.06 ЮЗ 1 10 км слаб. дождь 9/5 500 м
[Cu med, cong Ac trans Ci fib]
+25.6 +23.3 87 +34 +34 очень
душно
1012.3 1011.8
00 11.06 В 4 7000 м дымка {дождь} 6/4 480 м
[Cu med, cong Ac trans Ci fib]
+26.5 +23.2 82 +36 +36 очень
душно
1013.8 1013.3 +25.1 0.0
03 11.06 В 4 10 км 5/3 480 м
[Cu med, cong Ac trans Ci fib]
+28.9 +23.5 73 +39 +45 очень
душно
1013.9 1013.4
06 11.06 ЮВ 5 10 км 6/5 500 м
[Cu med, cong Ac trans Ci fib]
+28.5 +22.6 70 +37 +40 очень
душно
1012.0 1011.5
09 11.06 В 5 10 км 4/1 500 м
[Cu med, cong Ci fib]
+27.7 +23.0 76 +37 +38 очень
душно
1011.4 1010.9
12 11.06 ЮВ 4 10 км 4/1 500 м
[Cu med, cong Ci fib]
+26.7 +23.2 81 +36 +36 очень
душно
1013.0 1012.5 +29.4
15 11.06 В 3 10 км 5/3 500 м
[Cu med, cong Ci fib]
+26.3 +23.2 83 +35 +35 очень
душно
1013.8 1013.3
18 11.06 В 3 10 км 5/3 500 м
[Cu med, cong Ci fib]
+26.0 +23.3 85 +35 +35 очень
душно
1012.5 1012.0
21 11.06 ЮВ 3 10 км 5/3 500 м
[Cu med, cong Ci fib]
+26.1 +23.4 85 +35 +35 очень
душно
1012.3 1011.8
00 12.06 В 4 10 км 8/3 500 м
[Cu med, cong Ac trans Ci fib]
+27.3 +23.6 80 +37 +38 очень
душно
1013.8 1013.3 +25.4
03 12.06 В 6 10 км 8/5 450 м
[Cu med, cong Ac trans Ci fib]
+29.0 +23.8 74 +40 +42 очень
душно
1013.9 1013.4
06 12.06 В 7 10 км 4/3 500 м
[Cu med, cong Ci fib]
+28.7 +23.3 73 +39 +42 очень
душно
1011.8 1011.3
09 12.06 В 6 10 км 8/6 480 м
[Cu hum Ci fib]
+27.5 +23.4 78 +37 +37 очень
душно
1011.6 1011.1
12 12.06 В 4 10 км 5/4 480 м
[Cu med, cong Ci fib]
+26.8 +23.1 80 +36 +36 очень
душно
1012.9 1012.4 +29.4
15 12.06 ЮВ 4 10 км 4/3 500 м
[Cu med, cong Ci fib]
+26.6 +23.1 81 +36 +36 очень
душно
1013.6 1013.1
18 12.06 ЮВ 3 10 км 9/5 500 м
[Cu med, cong Ac trans Ci fib]
+26.6 +23.3 82 +36 +36 очень
душно
1012.5 1012.0
21 12.06 ЮВ 4 10 км 10/4 500 м
[Cu med, cong Ac As Ci fib]
+26.7 +23.8 84 +37 +37 очень
душно
1011.5 1011.0
00 13.06 ЮВ 4 10 км 10/4 450 м
[Cu med, cong Ac As Ci fib]
+26.9 +24.0 84 +37 +38 очень
душно
1013.3 1012.8 +26.4
03 13.06 В 7 10 км {дождь} 9/4 450 м
[Cu med, cong Ac As Ci fib]
+28.0 +23.9 78 +39 +40 очень
душно
1013.4 1012.9 0.3
06 13.06 В 7 10 км {дождь} 9/4 450 м
[Cu med, cong Ac As Ci fib]
+28.2 +23.2 74 +38 +39 очень
душно
1011.3 1010.8 0.3
09 13.06 В 5 10 км 9/3 480 м
[Cu med, cong Ac trans Ci sp]
+27.3 +23.0 77 +36 +37 очень
душно
1010.9 1010.4
12 13.06 ЮВ 5 10 км 8/3 500 м
[Cu med, cong Ac trans Ci sp]
+27.0 +23.1 79 +36 +36 очень
душно
1012.4 1011.9 +29.2
15 13.06 ЮВ 5 10 км 9/8 450 м
[Cu Sc Ac trans Ci sp]
+26.9 +23.2 80 +36 +36 очень
душно
1013.0 1012.5
18 13.06 ЮВ 5 10 км 10/5 500 м
[Cu med, cong As op]
+26.8 +23.1 80 +36 +36 очень
душно
1011.8 1011.3
21 13.06 ЮВ 4 10 км 10/5 500 м
[Cu med, cong As op]
+26.6 +23.3 82 +36 +36 очень
душно
1011.0 1010.5
00 14.06 ЮВ 4 10 км 10/4 500 м
[Cu med, cong Ac As Ci sp]
+26.9 +23.4 81 +36 +37 очень
душно
1012.4 1011.9 +25.7 0.3
03 14.06 ЮВ 5 10 км в посл. час дождь 10/4 480 м
[Cu med, cong As op Ci sp]
+27.1 +23.8 82 +37 +40 очень
душно
1012.8 1012.3 0.0
06 14.06 ЮВ 5 10 км {дождь} 10/6 480 м
[Cu med, cong Ac As Ci sp]
+28.2 +23.9 78 +39 +40 очень
душно
1010.3 1009.8 0.0
09 14.06 ЮВ 3 8000 м 10/6 450 м
[Cu med, cong Ac As Ci sp]
+27.5 +24.0 81 +38 +38 очень
душно
1010.0 1009.5
12 14.06 В 4 10 км 9/6 450 м
[Cu med, cong Ac As Ci sp]
+26.9 +23.8 83 +37 +37 очень
душно
1012.1 1011.6 +29.0
15 14.06 ЮВ 3 10 км 9/8 480 м
[Cu med, cong Ac trans Ci fib]
+26.7 +23.4 82 +36 +36 очень
душно
1013.3 1012.8
18 14.06 В 3 10 км 8/6 500 м
[Cu med, cong Ac trans Ci fib]
+26.3 +23.0 82 +35 +35 очень
душно
1012.3 1011.8
21 14.06 В 2 10 км 8/6 500 м
[Cu med, cong Ac trans Ci fib]
+26.2 +22.7 81 +35 +35 очень
душно
1012.5 1012.0
00 15.06 ЮВ 5 10 км 9/6 450 м
[Cu med, cong Ac trans Ci fib]
+27.0 +22.7 77 +36 +36 очень
душно
1013.6 1013.1 +25.8
03 15.06 В 6 10 км 6/4 500 м
[Cu med, cong Ac trans Ci fib]
+28.3 +22.7 72 +38 +40 очень
душно
1013.4 1012.9
06 15.06 В 6 10 км 6/4 500 м
[Cu med, cong Ac trans Ci fib]
+28.5 +23.1 73 +38 +41 очень
душно
1011.3 1010.8
09 15.06 В 5 10 км 8/5 480 м
[Cu med, cong Ac trans Ci fib]
+27.1 +23.2 79 +36 +37 очень
душно
1010.4 1009.9
12 15.06 В 3 10 км 8/5 450 м
[Cu med, cong Ac trans Ci fib]
+26.4 +22.7 80 +35 +35 очень
душно
1012.3 1011.8 +29.8
15 15.06 В 5 10 км 8/5 450 м
[Cu med, cong Ac trans Ci fib]
+26.1 +22.6 81 +34 +34 очень
душно
1013.5 1013.0
18 15.06 В 4 10 км 8/5 450 м
[Cu med, cong Ac trans Ci fib]
+25.8 +22.7 83 +34 +34 очень
душно
1012.9 1012.4
21 15.06 В 3 10 км 9/6 450 м
[Cu med, cong Ac trans Ci fib]
+25.7 +22.2 81 +33 +33 очень
душно
1012.2 1011.7
00 16.06 В 3 10 км 4/3 480 м
[Cu med, cong Ci ing]
+26.6 +22.1 76 +34 +36 очень
душно
1013.5 1013.0 +25.5

 

Местоположение метеостанции Денпасар (Индонезия): широта -8.75 долгота 115.16 высота над уровнем моря 1 м.

В архиве по умолчанию представлена погода в Денпасаре за последнюю неделю. Архивные данные за месяц целиком и за предыдущие месяцы, начиная с января 2011 года, Вы можете получить, выбрав интересующий диапазон дат из раскрывающегося списка и нажав кнопку "Ввод!".


*Определитесь, кто Вы:
робот инопланетянин человек

Внимание! Время в таблицах - всемирное. Для получения местного времени необходимо прибавить поправку, которая равна 8 ч.

Смотрите также архив погоды в соседних городах и на ближайших метеорологических станциях:

Погода в Матараме (Индонезия) (102 км)
Погода в Банюванги (Индонезия) (104 км)
Погода в Калиянджете (Индонезия) (231 км)
Погода в Сурабая Геданган (Индонезия) (233 км)
Погода в Сумбава-Бесаре (Индонезия) (249 км)
Погода в Аэропорту Джуанда (Индонезия) (306 км)
Погода в Сурабая Перак (Индонезия) (319 км)
Погода в Биме (Индонезия) (390 км)
Погода в Сангкапуре (Индонезия) (427 км)
Погода в Семаранге (Индонезия) (560 км)

Пояснения к столбцам:

Ветер - указаны скорость ветра в м/с - средняя за 10 мин, порывы в срок и между сроками (в фигурных скобках) и направление, откуда дует ветер: С - северный, СВ - северо-восточный, В - восточный, ЮВ - юго-восточный, Ю - южный, ЮЗ - юго-западный, З - западный, СЗ - северо-западный.
Видимость - горизонтальная дальность видимости в метрах или километрах. При видимости от 1 до 10 км при отсутствии осадков обычно наблюдается дымка, при ухудшении видимости до 1 км и менее - туман. В сухую погоду видимость может ухудшаться дымом, пылью или мглою.
Явления - указаны атмосферные явления, наблюдавшиеся в срок или в последний час перед сроком; фигурными скобками обозначены явления, наблюдавшиеся между сроками (за 1-3 часа до срока); квадратными скобками обозначены град или гололедные отложения с указанием их диаметра в мм.
Облачность - указаны через наклонную черту общая и нижняя облачность в баллах и высота нижней границы облаков в метрах; квадратными скобками обозначены формы облаков: Ci - перистые, Cs - перисто-слоистые, Cc - перисто-кучевые, Ac - высококучевые, As - высокослоистые, Sc - слоисто-кучевые, Ns - слоисто-дождевые, Cu - кучевые, Cb - кучево-дождевые. Подробнее классификацию облаков см. в Атласе облаков (PDF).
T - Температура воздуха - температура, измеренная на высоте 2 м над землей.
Td - Температура точки росы - температура, при понижении до которой содержащийся в воздухе водяной пар достигнет насыщения.
f - Относительная влажность воздуха - влажноcть воздуха, измеренная на высоте 2 м над землей.
Te - Эффективная температура - температура, которую ощущает одетый по сезону человек в тени. Характеристика душности погоды. При расчете учитывается влияние влажности воздуха и скорости ветра на теплоощущения человека.
Tes - Эффективная температура на солнце - температура, которую ощущает человек, с поправкой на солнечный нагрев. Характеристика знойности погоды. Зависит от высоты солнца над горизонтом, облачности и скорости ветра. Ночью, в пасмурную погоду, а также при ветре 12 м/с и более поправка равна нулю.
P - Атмосферное давление - приведенное к уровню моря атмосферное давление.
Po - Атмосферное давление - измеренное на уровне метеостанции атмосферное давление.
Tmin - Минимальная температура - минимум температуры воздуха на высоте 2 м над землей.
Tmax - Максимальная температура - максимум температуры воздуха на высоте 2 м над землей.
R - Количество осадков - Количество выпавших осадков за период времени, мм. При наведении курсора мыши на число - период времени, за который выпало указанное количество осадков.
R24 - Количество осадков - Количество выпавших осадков за 24 часа, мм.
S - Снежный покров - Высота снежного покрова, см. При наведении курсора мыши на число - состояние снежного покрова и степень покрытия местности в баллах.